Weather History for Lihue, HI

Change the Weather History Date:

Sunday, December 16, 2012

  Actual Average Record
Temperature  
Mean Temperature 75 °F 73 °F  
Max Temperature 79 °F 79 °F 85 °F (1979)
Min Temperature 71 °F 68 °F 57 °F (1983)
Degree Days  
Heating Degree Days 0 0  
Month to date heating degree days 0 0  
Since 1 July heating degree days 0 0  
Cooling Degree Days 10 8  
Month to date cooling degree days 161 139  
Year to date cooling degree days 4002 3830  
Growing Degree Days 24 (Base 50)    
Moisture  
Dew Point 65 °F    
Average Humidity 73    
Maximum Humidity 84    
Minimum Humidity 62    
Precipitation  
Precipitation 0.05 in 0.18 in 3.42 in (1951)
Month to date precipitation 3.90 2.63  
Year to date precipitation 40.71 34.48  
Snow  
Snow 0.00 in - - ()
Month to date snowfall 0.0  
Since 1 July snowfall 0.0  
Snow Depth 0.00 in    
Sea Level Pressure  
Sea Level Pressure 30.13 in    
Wind  
Wind Speed 20 mph (ENE)    
Max Wind Speed 31 mph    
Max Gust Speed 37 mph    
Visibility 10 miles    
Events Rain    
T = Trace of Precipitation, MM = Missing Value Source: NWS Daily Summary

Daily Weather History Graph

Daily Weather History Graph

Search for Another Location

Airport:

Trip Planner

Search our weather history database for the weather conditions in past years. The results will help you decide how hot, cold, wet, or windy it might be!

Date:

Astronomy

Dec. 16, 2012 Rise Set
Actual Time 7:09 AM HST 5:57 PM HST
Civil Twilight 6:45 AM HST 6:21 PM HST
Nautical Twilight 6:17 AM HST 6:49 PM HST
Astronomical Twilight 5:49 AM HST 7:17 PM HST
Moon 10:11 AM HST (12/16) 9:59 PM HST (12/16)
Length of Visible Light 11h 36m
Length of Day
10h 47m
Waxing Crescent, 17% of the Moon is Illuminated
Dec 16
Waxing Crescent
Dec 19
First Quarter
Dec 28
Full
Jan 4
Last Quarter
Jan 11
New

Hourly Weather History & Observations

Time (HST) Temp. Dew Point Humidity Pressure Visibility Wind Dir Wind Speed Gust Speed Precip Events Conditions
12:53 AM 72.0 °F 64.9 °F 78% 30.14 in 7.0 mi ESE 23.0 mph 28.8 mph 0.00 in Rain Light Rain
1:02 AM 71.6 °F 66.2 °F 83% 30.14 in 8.0 mi ENE 19.6 mph 29.9 mph 0.01 in Rain Light Rain
1:19 AM 73.4 °F 64.4 °F 73% 30.14 in 10.0 mi ENE 20.7 mph 25.3 mph 0.01 in   Overcast
1:53 AM 73.0 °F 64.0 °F 73% 30.14 in 10.0 mi ENE 23.0 mph 29.9 mph 0.01 in   Mostly Cloudy
2:53 AM 73.9 °F 62.1 °F 66% 30.12 in 10.0 mi ENE 23.0 mph - N/A   Overcast
3:53 AM 73.9 °F 64.0 °F 71% 30.11 in 10.0 mi ENE 18.4 mph - N/A   Overcast
4:53 AM 73.9 °F 62.1 °F 66% 30.11 in 10.0 mi ENE 24.2 mph 31.1 mph N/A   Overcast
5:53 AM 73.9 °F 62.1 °F 66% 30.12 in 10.0 mi ENE 23.0 mph 32.2 mph N/A   Mostly Cloudy
6:53 AM 73.0 °F 62.1 °F 68% 30.14 in 10.0 mi ENE 23.0 mph - N/A   Clear
7:53 AM 73.9 °F 61.0 °F 64% 30.15 in 10.0 mi ENE 20.7 mph - N/A   Scattered Clouds
8:53 AM 75.0 °F 62.1 °F 64% 30.17 in 10.0 mi ENE 20.7 mph 25.3 mph N/A   Scattered Clouds
9:53 AM 75.0 °F 64.0 °F 69% 30.18 in 10.0 mi ENE 19.6 mph - N/A   Mostly Cloudy
10:53 AM 77.0 °F 64.0 °F 64% 30.17 in 10.0 mi ENE 15.0 mph - N/A   Partly Cloudy
11:53 AM 77.0 °F 64.0 °F 64% 30.15 in 10.0 mi ENE 18.4 mph - N/A   Scattered Clouds
12:53 PM 78.1 °F 66.0 °F 66% 30.12 in 10.0 mi ENE 16.1 mph - N/A   Scattered Clouds
1:53 PM 77.0 °F 66.9 °F 71% 30.09 in 10.0 mi NE 17.3 mph - N/A   Mostly Cloudy
2:31 PM 78.8 °F 64.4 °F 61% 30.09 in 10.0 mi ENE 17.3 mph - N/A   Mostly Cloudy
2:39 PM 77.0 °F 64.4 °F 65% 30.09 in 10.0 mi ENE 19.6 mph - N/A   Mostly Cloudy
2:53 PM 78.1 °F 64.0 °F 62% 30.09 in 10.0 mi ENE 15.0 mph - N/A   Mostly Cloudy
3:02 PM 77.0 °F 62.6 °F 61% 30.09 in 10.0 mi ENE 15.0 mph - N/A   Scattered Clouds
3:53 PM 78.1 °F 64.0 °F 62% 30.08 in 10.0 mi NE 16.1 mph - N/A   Mostly Cloudy
4:53 PM 75.9 °F 66.0 °F 71% 30.09 in 10.0 mi NE 16.1 mph - N/A   Mostly Cloudy
5:15 PM 73.4 °F 66.2 °F 78% 30.10 in 10.0 mi NE 17.3 mph - N/A   Overcast
5:23 PM 75.2 °F 66.2 °F 73% 30.11 in 10.0 mi ENE 19.6 mph - N/A   Overcast
5:53 PM 73.9 °F 66.0 °F 76% 30.11 in 10.0 mi ENE 18.4 mph - N/A   Overcast
6:53 PM 73.0 °F 66.9 °F 81% 30.12 in 10.0 mi ENE 17.3 mph - N/A   Overcast
7:08 PM 71.6 °F 66.2 °F 83% 30.13 in 3.0 mi ENE 19.6 mph 26.5 mph 0.01 in Rain Rain
7:25 PM 71.6 °F 68.0 °F 88% 30.13 in 10.0 mi ENE 18.4 mph - 0.01 in   Overcast
7:48 PM 73.4 °F 68.0 °F 83% 30.14 in 10.0 mi ENE 21.9 mph 27.6 mph 0.01 in   Overcast
7:53 PM 73.0 °F 68.0 °F 84% 30.14 in 10.0 mi ENE 20.7 mph 27.6 mph 0.01 in   Overcast
8:27 PM 73.4 °F 68.0 °F 83% 30.14 in 10.0 mi ENE 23.0 mph 32.2 mph 0.03 in   Overcast
8:53 PM 73.9 °F 68.0 °F 82% 30.14 in 10.0 mi NE 24.2 mph 31.1 mph 0.03 in   Overcast
9:21 PM 73.4 °F 66.2 °F 78% 30.15 in 10.0 mi NE 25.3 mph 31.1 mph N/A   Overcast
9:53 PM 73.9 °F 66.0 °F 76% 30.15 in 10.0 mi ENE 26.5 mph 33.4 mph N/A   Overcast
10:53 PM 73.9 °F 66.0 °F 76% 30.15 in 10.0 mi ENE 23.0 mph 33.4 mph N/A   Mostly Cloudy
11:23 PM 73.4 °F 66.2 °F 78% 30.15 in 10.0 mi ENE 24.2 mph 32.2 mph N/A   Overcast
11:53 PM 73.9 °F 64.9 °F 73% 30.14 in 10.0 mi ENE 28.8 mph 36.8 mph 0.00 in   Mostly Cloudy